Wind_Speed
14 14 13 13 13 13 12 12 11 12 12 11 11 11 11 12 12 11 11 11 11 12 12 12 13 13 13 13 14 15 15 16 16 17 24 23 16 14 13 9 8 10 9 8 10 12 13 14 13 12 11 10 9 11 13 8 7 6 2 3 3 3 3 4 5 3 0 4 4 8 14 7 3 5 9 10 12 12 9 7 7 6 5 5 7 13 22 24
14 14 14 12 12 13 13 12 12 12 13 12 11 11 12 12 12 11 12 11 12 13 13 13 14 14 13 13 14 15 15 17 17 21 25 20 15 14 15 13 13 14 13 11 11 12 14 15 15 14 12 10 7 9 11 8 7 5 1 3 5 4 2 3 4 2 2 5 7 11 12 8 4 3 6 4 6 7 7 7 9 11 10 10 12 18 23 24
15 16 16 13 12 14 13 13 12 11 13 12 11 11 11 12 12 12 12 11 12 13 14 14 14 14 13 13 14 14 15 16 19 24 24 18 17 16 16 16 15 16 15 12 10 10 11 12 14 15 13 9 7 9 10 8 8 5 2 4 5 3 3 5 5 6 8 9 8 9 11 10 6 2 4 3 5 4 3 5 8 13 14 15 18 22 24 24
16 16 15 14 14 15 14 13 13 11 12 13 12 11 11 11 12 12 12 11 12 13 14 14 13 13 13 13 13 12 12 13 15 18 16 13 14 15 17 18 17 18 17 12 9 10 11 11 12 15 13 7 7 9 8 9 7 5 5 5 2 2 4 6 6 8 9 8 4 7 11 9 9 6 5 6 5 1 2 5 7 13 19 19 20 23 24 24
16 16 15 14 15 15 14 14 14 12 11 12 12 12 11 11 12 12 12 12 12 12 13 14 13 13 12 12 12 9 7 6 6 8 7 7 8 7 10 16 19 20 18 15 13 13 13 13 13 15 11 5 7 7 6 11 9 4 5 4 4 3 4 6 6 7 6 5 4 6 8 7 11 8 7 8 3 2 2 3 6 13 18 17 20 23 24 24
18 18 17 15 15 16 15 13 14 14 13 12 12 13 11 11 12 12 13 12 12 12 13 14 13 12 12 11 11 7 4 3 1 3 5 7 5 1 2 9 16 20 21 17 16 16 15 15 15 13 8 4 8 7 6 13 11 5 3 3 9 9 7 9 9 9 9 9 7 5 7 6 8 6 6 5 1 3 2 3 8 11 13 14 19 22 23 24
18 18 17 16 18 18 17 14 12 13 14 13 12 13 12 12 12 12 13 11 11 12 12 14 13 11 11 10 10 7 9 13 8 4 4 4 3 5 6 6 11 20 23 21 19 19 17 19 18 14 9 4 6 8 7 11 10 7 4 2 8 11 12 14 13 14 16 14 11 10 8 4 2 2 2 4 2 2 1 4 10 12 13 15 19 20 20 21
18 17 17 16 18 18 16 15 13 13 13 13 12 12 12 12 12 13 12 11 11 12 12 13 12 11 10 9 9 7 13 20 15 10 11 12 13 11 9 7 9 19 25 24 22 20 19 21 21 15 8 3 7 10 7 8 7 6 6 5 7 10 11 13 15 17 17 14 12 10 6 2 4 3 2 3 3 3 3 8 12 14 15 16 18 18 18 18
17 19 19 18 18 19 16 14 14 14 14 13 13 12 12 12 12 13 12 11 11 12 12 12 11 10 9 9 7 6 14 19 14 14 15 16 16 13 10 8 9 19 25 24 21 20 20 22 24 19 9 5 9 10 10 8 5 8 10 7 7 9 9 11 14 16 15 11 8 5 2 3 4 4 3 4 4 5 7 10 13 15 16 17 18 18 17 18
19 21 22 19 19 20 17 14 14 13 13 14 14 13 12 12 12 12 11 10 11 12 12 12 11 10 9 9 5 4 13 14 9 10 10 11 13 10 8 7 10 21 26 24 22 21 20 21 23 18 8 7 8 7 10 9 5 8 12 10 11 12 10 11 13 16 15 11 9 6 1 2 3 3 2 5 7 6 8 11 13 15 17 17 17 17 16 16
20 21 21 19 19 19 15 14 15 13 12 14 14 14 12 12 12 10 10 10 11 12 12 12 10 10 10 9 9 8 11 10 7 8 8 7 7 5 5 5 9 22 26 25 23 21 20 18 20 15 5 7 9 7 8 10 7 6 8 7 9 10 9 11 12 13 10 7 6 3 1 1 2 2 2 7 9 8 9 11 12 13 14 16 17 17 15 15
21 22 21 20 19 19 16 13 14 14 13 13 14 14 12 11 11 9 10 10 11 12 12 11 10 10 10 11 17 17 13 9 7 7 5 3 2 4 2 3 11 22 23 23 21 19 18 15 19 14 4 9 9 4 6 9 7 5 5 4 3 3 5 8 7 6 3 3 2 3 2 1 1 1 2 6 9 8 8 10 12 14 13 15 16 15 14 14
23 24 22 20 19 19 18 13 13 15 13 13 14 13 12 11 10 10 10 10 12 12 11 10 9 9 8 12 20 21 14 12 13 11 7 3 2 4 3 5 14 22 21 19 15 17 16 13 18 14 7 10 6 2 4 5 5 4 4 2 2 1 2 3 1 1 3 2 1 6 3 2 1 1 2 2 9 11 10 10 11 13 13 13 14 14 14 14
24 25 22 19 18 18 17 13 12 15 14 13 14 13 11 11 10 9 10 11 12 11 10 9 9 7 8 14 21 20 16 16 18 17 13 10 6 4 6 8 14 20 20 16 11 12 15 14 16 13 8 7 3 2 3 2 2 3 4 1 1 2 2 1 2 2 3 1 4 6 3 1 2 7 9 5 8 10 9 9 9 11 12 13 13 13 13 13
24 24 20 17 18 18 16 12 12 15 15 14 14 12 10 9 9 9 11 12 11 10 9 8 8 6 7 16 19 16 16 18 20 19 16 14 12 9 10 13 15 18 18 14 9 8 13 16 14 10 6 4 3 2 1 1 1 1 3 3 1 2 1 2 2 2 2 2 2 4 2 2 5 11 15 8 4 4 1 4 7 10 12 12 11 11 11 11
22 21 18 17 17 17 15 13 14 16 16 14 13 11 9 9 9 10 12 11 10 9 7 5 5 4 5 12 13 11 13 16 18 19 18 16 14 10 12 15 15 15 14 13 10 7 13 15 10 8 5 3 3 3 2 2 1 1 2 3 3 3 2 1 2 1 0 3 1 2 1 3 5 11 17 13 2 1 1 0 5 8 10 8 7 8 9 10
22 19 18 17 16 16 14 14 15 15 15 15 13 10 7 8 10 11 11 9 9 6 5 3 2 4 7 9 9 9 10 12 12 13 14 15 15 12 11 15 15 14 11 11 10 7 13 13 8 6 3 1 2 4 5 5 4 2 1 2 2 2 2 1 2 2 1 3 3 1 2 4 6 10 15 16 9 4 2 3 4 7 8 5 4 6 7 9
21 18 18 17 16 15 13 15 15 14 14 14 12 9 5 6 8 9 9 10 8 5 2 4 4 0 9 12 12 9 6 6 5 7 11 13 16 14 12 14 15 14 10 11 10 8 11 9 5 4 3 2 3 6 6 5 5 5 4 3 2 1 2 1 2 1 2 2 4 2 2 6 8 9 13 16 14 11 8 7 5 5 5 6 6 7 8 9
19 18 18 17 15 14 14 16 15 15 15 13 10 5 2 2 2 2 7 13 12 6 1 9 14 5 2 3 9 11 10 8 4 6 11 13 18 17 12 11 14 17 12 8 8 8 9 6 4 6 5 5 5 7 6 5 6 6 5 4 4 4 2 1 1 1 1 3 4 3 4 7 10 11 13 13 13 14 14 11 9 6 1 6 9 10 9 8
19 18 17 17 15 14 15 16 16 15 13 11 6 1 3 2 1 1 8 16 17 14 7 10 19 16 8 2 2 4 8 10 7 5 9 14 20 20 14 12 14 14 9 6 7 8 9 6 6 7 6 7 6 6 6 4 6 6 5 4 3 4 3 1 1 1 0 3 5 7 9 10 10 10 12 10 10 15 16 14 13 11 4 3 7 8 7 6
19 18 18 18 18 16 15 15 16 14 12 9 5 1 3 3 2 2 7 13 20 24 20 17 17 20 19 13 10 8 5 5 7 6 7 14 23 19 14 13 10 7 5 5 6 6 8 7 6 6 5 7 6 5 6 5 6 6 5 4 2 3 2 2 1 3 2 3 2 6 12 11 9 10 12 11 11 15 16 15 14 12 8 4 2 3 4 5
18 18 18 19 19 18 15 14 14 14 13 10 6 2 3 4 3 3 3 8 15 21 25 25 23 27 29 24 22 19 9 5 7 7 6 16 25 17 12 12 8 5 4 5 5 5 7 6 6 6 5 5 4 3 6 6 5 4 3 3 3 2 1 1 2 4 3 3 4 5 12 9 7 8 12 14 13 14 15 15 15 13 11 9 6 4 1 1
18 17 18 19 19 17 16 15 14 14 12 9 5 4 7 2 3 5 5 5 10 15 20 25 28 32 35 30 26 21 11 6 8 8 8 18 23 19 16 11 6 7 6 8 9 7 6 6 7 7 7 8 5 3 5 6 3 2 3 3 3 2 1 3 3 3 4 3 6 9 11 7 6 7 10 13 14 14 14 16 17 15 13 12 9 7 6 4
17 16 18 19 17 15 15 15 14 12 10 6 5 11 8 1 3 5 5 4 7 10 15 20 24 30 33 27 19 16 14 11 9 9 10 19 22 18 15 12 8 7 7 8 10 9 5 5 9 9 7 8 6 4 5 5 3 1 3 4 3 2 2 2 3 2 3 4 4 8 8 4 6 7 8 10 12 13 14 17 20 18 15 13 12 12 11 9
17 16 18 18 15 13 12 14 12 9 7 4 8 13 8 2 2 3 3 3 5 4 8 13 17 23 27 20 14 13 11 12 15 12 11 20 24 16 11 12 9 6 8 8 9 8 4 6 12 10 6 8 8 6 5 6 5 2 3 5 4 5 4 1 2 3 4 3 3 1 3 2 5 7 8 7 8 12 15 19 20 19 17 15 16 16 14 12
16 16 17 17 15 13 11 11 8 5 5 4 11 12 6 2 2 2 3 2 4 3 3 8 11 13 15 16 18 15 5 8 18 17 13 20 25 18 11 8 4 5 9 7 5 4 2 6 10 9 9 9 7 6 5 5 5 3 4 5 4 4 4 3 3 2 2 3 2 1 1 3 2 5 7 7 8 11 14 18 18 17 18 18 19 19 18 18
15 15 16 16 15 12 9 8 5 5 4 6 11 10 4 4 3 4 4 2 3 4 5 7 8 8 10 16 25 18 3 5 12 16 18 21 22 19 12 7 3 4 5 4 4 2 4 8 6 7 9 8 6 5 5 6 6 2 3 7 7 5 6 5 4 3 1 1 2 1 0 4 3 3 6 5 6 12 14 15 15 16 18 20 22 22 22 22
14 14 16 15 12 10 8 8 9 7 4 7 10 8 4 6 4 6 3 1 1 4 5 6 7 8 8 16 29 18 3 8 8 12 24 24 20 15 9 9 8 8 6 6 7 3 4 9 8 9 8 6 5 4 6 8 4 1 3 7 7 5 5 5 3 3 1 1 3 1 0 3 3 2 4 3 5 11 12 11 12 14 17 19 22 22 21 21
14 14 15 15 13 11 11 12 9 5 7 10 8 6 6 4 8 5 1 1 2 2 3 7 9 10 10 15 23 15 6 7 4 11 24 24 19 12 7 10 11 10 6 4 6 3 2 10 12 11 8 6 5 4 9 11 3 3 7 6 4 3 3 3 2 2 1 3 4 1 2 2 3 0 0 1 4 7 7 8 10 13 16 19 21 21 21 20
15 16 15 15 14 10 11 11 7 5 9 11 7 5 5 8 7 2 2 1 2 1 3 7 7 9 15 13 12 10 4 3 4 13 19 17 17 11 8 12 10 8 4 1 5 2 1 6 9 7 6 6 5 4 7 8 6 8 9 6 5 3 2 2 1 1 2 4 2 2 4 1 3 2 2 1 3 5 5 6 9 12 16 19 21 21 21 20
17 17 17 17 13 9 10 8 6 8 10 8 3 3 9 8 1 2 4 1 2 2 3 4 5 9 15 12 8 8 3 1 7 14 13 10 11 7 7 9 6 6 5 3 5 1 2 5 4 4 5 6 6 5 2 1 6 7 5 4 5 3 1 2 2 1 5 5 1 1 3 1 3 2 3 4 4 5 6 7 7 10 14 18 19 20 20 20
17 18 19 18 14 12 10 5 5 7 8 4 2 7 9 4 2 3 2 3 2 1 4 1 3 7 11 9 8 10 7 4 7 12 11 10 9 6 6 6 5 6 6 6 5 2 2 4 1 2 6 8 7 6 3 1 3 4 4 6 7 4 3 4 3 3 4 3 1 2 3 2 4 4 6 6 5 7 9 9 9 10 14 16 18 18 19 20
17 18 18 16 16 14 10 8 7 7 5 2 3 6 4 2 3 4 4 2 1 2 4 3 2 5 10 7 6 10 8 5 7 9 10 10 9 7 3 3 6 5 4 5 5 4 4 2 2 2 4 8 9 7 5 4 5 6 6 8 7 5 5 5 3 2 2 2 1 4 3 3 5 5 7 7 8 12 13 12 12 13 14 15 16 18 19 21
17 17 15 14 15 12 9 10 11 8 6 3 4 5 4 3 2 3 3 1 1 3 2 5 6 4 10 6 7 11 6 3 8 8 7 9 9 6 3 3 5 3 3 4 3 6 7 3 6 7 3 8 10 6 7 8 7 6 3 4 5 4 4 4 3 3 3 3 2 3 1 3 5 5 8 11 13 14 14 13 14 15 15 15 17 19 21 21
15 14 13 12 13 10 8 12 12 10 8 4 4 4 5 4 2 1 1 2 2 2 4 6 6 4 9 4 7 13 5 1 8 7 6 9 7 7 6 5 5 3 4 6 2 3 5 3 4 4 2 9 11 6 6 9 6 3 1 2 4 4 3 3 1 1 2 3 2 3 2 2 3 6 10 12 13 13 12 13 13 14 15 17 18 19 20 21
13 11 11 10 9 7 9 14 14 13 10 6 5 5 3 2 1 1 1 2 1 3 7 6 3 4 7 4 7 12 3 2 8 5 4 8 6 6 7 5 6 5 4 5 2 2 3 2 1 2 3 8 9 7 7 6 5 3 3 4 2 2 5 4 2 2 1 3 2 1 2 4 3 5 8 10 10 9 9 11 13 13 14 16 16 15 16 19
11 9 9 8 7 7 12 15 15 14 11 5 5 4 2 3 2 1 0 2 3 3 4 3 1 2 5 4 7 12 6 3 6 4 4 5 3 4 6 4 6 7 6 4 1 2 3 2 0 2 6 4 3 8 5 1 4 5 6 6 3 2 3 2 3 2 1 3 2 0 3 7 5 3 7 10 9 7 8 10 11 12 14 15 14 12 14 16
9 9 7 4 6 10 13 14 15 14 9 4 4 4 3 3 2 2 2 1 1 3 3 1 2 2 3 3 6 10 8 5 5 4 4 3 1 3 6 5 5 7 8 6 2 1 2 2 1 1 4 2 3 7 5 3 2 2 6 7 3 2 3 2 2 4 3 3 2 1 1 5 6 3 7 11 9 8 8 7 8 12 14 13 12 12 14 16
7 7 5 3 6 11 11 13 16 12 6 3 4 4 2 3 4 2 2 2 4 2 1 2 3 3 3 2 3 5 5 6 6 4 3 2 1 2 3 3 4 6 7 6 3 1 0 2 2 1 0 3 2 2 4 4 2 3 6 5 0 1 3 2 2 2 4 4 3 3 2 5 5 2 6 9 10 10 9 6 7 11 13 12 12 12 13 16
4 4 3 4 4 9 10 13 14 8 3 3 3 2 2 3 4 3 3 4 4 2 1 3 3 4 5 2 2 3 2 5 6 3 1 2 2 1 3 2 4 4 3 3 2 2 0 0 2 1 0 3 2 0 3 5 4 4 7 5 2 2 2 2 2 2 2 5 4 4 4 5 3 1 2 7 10 10 9 8 9 12 13 12 11 10 11 14
2 2 1 4 2 10 14 14 8 4 2 1 1 2 4 2 2 5 7 7 7 6 6 7 7 7 5 2 2 3 2 3 3 1 1 3 2 1 2 3 5 6 3 2 2 2 0 0 2 2 1 2 2 1 2 2 1 3 5 5 4 4 4 5 3 1 2 3 4 4 4 4 2 2 4 8 9 9 10 11 11 13 13 12 11 10 11 13
2 1 1 2 8 16 15 8 2 2 2 1 2 3 3 0 1 4 7 9 9 8 8 9 10 9 6 3 2 3 3 2 1 1 2 2 2 2 2 4 6 9 6 2 1 2 1 2 3 3 2 2 2 2 1 1 2 4 3 1 2 3 4 5 5 4 3 2 3 2 2 3 3 3 6 8 9 11 11 11 13 14 13 12 11 10 10 12
1 2 3 6 15 14 7 2 1 2 2 1 2 4 2 2 0 3 5 7 7 6 6 6 8 9 7 5 2 4 4 2 3 1 2 2 2 1 2 6 8 8 5 2 1 2 2 2 3 4 2 2 3 3 2 3 3 5 5 3 1 0 1 2 3 4 4 3 4 3 2 3 3 4 7 9 11 12 12 11 12 13 13 12 11 10 10 12
1 3 5 14 16 6 1 2 2 4 4 2 2 2 1 1 4 7 8 7 6 4 3 4 5 5 5 4 3 4 3 2 2 1 1 1 2 2 1 10 11 5 2 3 4 5 2 1 1 4 4 3 4 3 3 3 3 3 3 3 3 2 3 4 3 3 3 3 3 4 3 2 4 6 8 9 10 12 12 11 12 13 12 11 10 10 11 13
2 4 6 15 10 3 2 1 0 3 4 2 1 1 2 2 8 13 12 10 11 8 3 4 4 3 3 2 4 3 2 2 1 1 0 1 1 3 3 8 9 1 2 5 9 8 3 2 1 2 4 4 4 3 2 2 2 2 3 4 5 3 2 3 4 3 4 4 2 3 3 4 6 8 8 7 9 10 10 11 12 13 11 10 10 10 11 14
1 2 4 8 5 4 4 4 3 2 2 1 1 1 2 4 7 12 15 13 13 10 4 5 6 3 2 3 6 4 4 3 3 2 1 2 2 2 4 6 6 8 12 14 15 11 4 4 5 4 4 3 3 3 2 1 3 3 3 5 6 3 2 1 3 3 4 6 3 1 5 10 11 9 9 8 8 8 8 10 12 12 10 10 9 9 12 14
1 2 3 4 3 3 5 6 4 2 1 3 2 1 5 6 6 7 10 8 8 9 5 5 5 1 3 5 6 3 4 4 4 4 2 0 2 1 5 9 8 9 13 11 10 7 4 4 7 10 10 7 6 7 6 6 8 7 5 6 6 3 2 1 3 2 5 7 4 3 9 14 12 10 10 9 8 8 9 10 11 10 9 10 10 11 15 15
1 1 3 3 2 2 2 4 4 3 1 4 3 2 3 6 5 4 5 4 6 7 5 3 3 5 2 3 5 4 4 4 3 2 1 1 2 2 4 6 6 5 7 6 6 5 5 4 4 9 13 10 9 10 10 13 13 12 11 10 9 8 6 5 3 1 0 2 3 9 14 12 10 10 9 9 9 9 11 11 10 9 10 11 12 15 17 17
1 1 2 3 2 2 2 2 3 3 2 3 2 3 3 5 6 4 3 2 1 0 1 1 4 6 4 3 5 5 5 4 2 1 2 2 2 1 3 4 4 5 5 5 4 3 4 5 6 10 13 12 10 9 10 13 14 14 15 13 12 12 12 11 9 6 6 7 9 16 16 10 7 8 9 11 12 12 13 12 10 10 11 12 14 16 17 17
1 3 2 2 3 3 2 1 3 3 2 2 2 3 2 4 5 3 2 1 1 3 4 5 4 6 6 6 7 5 2 3 5 4 3 2 2 1 1 1 1 4 4 3 3 2 3 5 7 7 9 9 9 11 11 14 17 17 15 12 11 12 12 11 10 8 10 11 13 16 16 10 6 9 12 12 12 13 13 11 11 11 12 12 14 16 16 16
3 6 6 4 2 1 1 0 2 2 1 1 3 3 2 3 3 2 1 4 5 4 3 4 6 6 9 12 10 5 2 4 8 7 5 6 5 2 2 1 1 1 3 3 2 2 4 7 6 3 6 5 5 9 9 9 13 16 14 13 11 9 8 8 7 5 5 11 15 13 10 6 6 10 13 12 13 13 12 12 12 11 11 12 13 14 14 16
6 6 3 2 1 1 0 1 1 1 1 2 3 3 3 4 4 1 2 6 10 10 5 2 5 7 8 10 8 4 8 18 20 19 20 22 19 12 9 9 6 3 3 3 2 3 4 8 6 2 5 5 4 2 2 1 5 7 7 7 6 6 8 8 8 8 5 9 9 6 6 7 9 11 11 10 11 12 11 11 11 10 11 12 11 11 14 16
Wind_Direction
316 313 305 300 305 310 311 310 309 311 309 306 307 305 300 294 291 291 291 294 296 292 290 291 291 291 291 290 286 285 288 285 279 270 258 253 254 250 244 234 231 243 241 224 210 203 196 190 187 185 175 164 167 170 173 167 158 166 170 204 205 201 208 190 190 190 212 330 320 334 344 335 352 81 110 109 113 113 127 119 95 86 70 100 111 146 153 149
313 314 311 303 298 303 309 310 309 310 310 307 307 305 299 293 292 292 289 293 295 292 290 291 291 293 294 293 290 293 293 291 287 267 255 260 266 255 247 239 236 243 241 231 220 206 203 200 192 186 174 161 157 167 177 177 176 178 135 206 215 197 203 202 203 216 250 309 322 321 332 328 324 131 148 131 125 126 120 104 95 91 91 112 131 152 155 154
309 310 312 310 299 296 304 308 307 309 312 309 305 304 303 298 294 291 290 293 294 292 290 289 292 295 294 293 294 298 300 302 294 272 265 271 263 253 247 237 230 233 236 235 226 214 211 207 200 188 172 159 159 168 175 177 185 192 178 222 226 205 253 251 239 254 264 287 308 316 326 324 317 251 215 177 145 153 143 135 119 115 122 132 143 155 158 159
310 311 312 312 303 297 302 306 304 306 310 309 306 304 305 304 297 292 292 292 293 293 290 289 291 295 295 294 294 301 314 313 293 275 271 266 249 242 240 234 224 224 228 225 212 209 203 195 198 189 173 154 158 166 176 183 180 176 195 230 215 150 253 250 251 269 276 280 284 315 324 331 341 318 219 168 137 137 222 181 140 143 148 147 152 159 163 165
310 310 308 307 307 301 302 306 305 306 303 303 307 304 304 306 300 293 291 290 292 293 290 289 289 293 294 291 291 301 328 328 283 257 246 220 210 212 230 232 222 217 218 213 201 196 195 190 187 182 174 148 158 165 190 192 179 168 202 240 233 202 253 263 279 292 293 292 294 315 313 320 340 330 187 171 135 114 201 178 143 158 159 155 158 161 167 170
307 310 306 301 302 300 299 302 306 307 300 296 304 303 297 299 299 293 289 289 292 291 288 287 288 292 291 288 290 288 266 258 194 146 171 162 151 113 286 243 221 213 209 205 198 192 191 185 179 175 172 153 168 180 191 189 189 203 207 228 238 233 245 268 285 291 288 290 294 292 290 303 331 327 190 192 91 121 168 147 147 163 164 160 161 165 172 176
310 311 309 302 301 302 298 293 294 303 303 299 302 302 297 294 296 292 288 290 290 289 288 286 287 289 288 285 283 270 243 242 225 174 193 204 255 298 314 279 223 211 202 198 195 193 187 180 179 175 167 147 180 196 182 178 191 218 222 219 246 243 246 267 283 289 288 285 289 281 275 279 288 312 209 225 222 161 146 134 151 159 161 161 163 168 174 178
315 313 311 307 307 309 307 299 293 295 298 298 298 299 298 293 289 289 288 289 288 287 285 284 287 285 283 280 274 262 246 245 242 248 260 269 278 285 296 291 231 208 199 199 198 193 185 180 181 174 172 176 185 194 172 166 188 212 226 233 252 256 258 275 285 289 292 292 296 280 253 207 212 219 150 209 199 153 133 137 153 158 159 163 166 169 172 178
318 315 310 306 304 309 313 309 301 299 299 298 297 295 296 292 285 286 287 289 289 284 282 283 284 281 276 267 261 258 253 256 266 269 268 270 274 280 283 277 231 203 195 197 198 196 189 186 187 182 188 185 172 184 177 183 201 198 214 226 242 256 268 282 286 287 293 296 291 263 215 101 186 191 143 191 172 135 138 140 153 160 161 166 169 172 175 178
317 317 314 310 306 306 310 308 299 296 298 298 296 294 294 289 282 284 289 290 287 283 282 280 278 275 269 255 228 245 260 261 274 272 276 275 267 272 270 268 226 200 192 190 194 200 199 200 195 185 183 168 162 171 174 193 202 189 206 222 239 252 271 277 278 282 288 290 272 248 258 74 151 169 139 184 168 141 140 140 152 161 164 171 173 175 181 181
317 318 316 313 311 306 304 304 300 290 290 295 291 289 288 283 281 285 288 286 284 283 279 276 277 269 261 243 208 227 259 260 267 272 290 289 256 241 249 274 220 198 192 188 193 201 208 211 191 174 168 171 167 160 176 206 213 194 195 210 238 249 266 261 265 280 284 293 278 226 227 308 132 144 144 166 160 146 151 148 154 165 168 174 176 178 182 181
315 318 315 307 306 307 299 294 299 296 292 294 291 287 283 278 279 284 285 283 282 279 274 274 273 264 261 247 231 238 253 256 261 259 268 279 195 173 197 253 208 198 194 192 194 199 209 211 187 176 161 164 159 155 191 206 199 184 182 202 240 244 258 238 246 277 253 296 298 154 188 262 109 158 157 161 162 155 162 159 161 174 176 176 178 179 181 180
311 315 314 306 303 305 301 295 300 303 294 290 292 289 282 277 278 281 281 279 277 273 271 271 266 261 260 254 252 255 258 256 256 245 225 221 176 158 179 208 198 193 193 199 203 202 205 199 189 188 161 159 156 127 158 167 176 166 161 223 261 232 251 216 237 262 205 287 212 167 200 223 175 304 331 199 182 171 170 169 173 180 181 182 180 179 182 181
310 312 311 307 302 298 299 299 300 300 293 290 292 286 279 278 277 276 274 272 271 268 267 264 258 253 249 261 267 267 260 252 251 242 225 224 231 215 197 194 194 192 192 204 215 207 198 181 183 189 171 175 173 110 111 97 163 155 145 189 269 212 218 47 40 177 185 216 190 197 227 198 37 3 355 319 209 190 177 172 182 187 187 188 182 178 184 186
311 312 309 305 301 299 300 296 290 290 286 290 293 284 274 276 274 267 267 266 263 260 257 255 251 239 257 274 275 269 257 246 244 239 230 227 231 232 207 189 191 196 198 207 214 202 191 183 184 187 182 187 177 158 156 91 75 88 174 173 125 201 231 23 67 172 190 105 176 229 229 104 46 20 11 1 220 211 161 170 196 204 201 193 179 176 181 188
316 318 313 306 301 302 304 297 292 289 283 283 286 282 274 275 269 262 264 259 254 251 242 246 248 225 266 283 271 261 254 242 240 241 237 230 224 226 211 193 188 194 201 209 211 199 189 188 190 190 182 167 171 164 137 158 148 50 216 170 139 188 199 48 92 105 266 135 133 299 207 105 45 15 18 26 58 187 30 329 224 225 221 205 179 179 181 191
323 321 313 307 301 301 302 295 294 293 291 285 278 277 279 274 263 262 260 242 234 228 214 222 224 228 251 267 257 248 249 243 246 244 236 227 219 219 205 192 192 195 194 192 188 176 178 183 192 195 184 137 159 169 169 189 182 141 197 145 124 191 185 166 121 66 18 162 174 330 72 73 34 14 22 31 50 93 49 349 276 244 230 207 174 184 191 198
321 317 310 307 303 304 301 294 291 287 287 283 281 285 282 269 264 263 241 208 185 144 153 190 137 195 253 249 247 241 232 223 228 227 219 212 208 207 198 193 194 185 165 163 167 158 162 172 191 180 164 174 179 188 187 177 162 154 166 155 130 167 175 179 146 46 359 137 164 172 90 50 26 20 24 26 43 61 37 7 336 285 234 197 188 199 203 207
313 310 307 303 300 301 296 293 292 286 280 277 290 303 263 257 273 259 201 178 164 145 186 195 180 186 276 239 240 242 235 221 229 233 213 198 192 190 194 194 182 168 150 149 170 173 164 154 186 189 183 184 182 190 180 153 156 153 158 160 144 152 166 216 190 347 355 99 100 113 96 50 24 16 15 17 37 50 37 23 16 4 264 194 203 211 214 216
308 305 303 298 293 293 292 292 291 290 286 285 305 57 178 209 156 141 180 187 202 213 227 208 202 219 248 283 246 254 240 228 241 238 211 195 183 178 180 173 160 160 157 154 164 179 179 171 188 190 178 176 181 182 155 136 146 126 125 134 121 151 158 179 207 340 338 85 66 86 85 53 32 21 12 14 35 41 34 26 21 18 33 171 203 210 212 222
304 302 301 296 289 285 285 292 293 290 286 286 307 304 198 191 178 169 188 218 235 232 234 237 230 239 247 250 260 288 308 252 228 199 198 194 180 171 168 159 151 161 169 147 134 160 185 192 192 178 166 170 176 169 130 118 131 120 127 125 122 177 153 132 81 345 359 85 95 96 82 55 36 37 24 25 40 39 32 28 25 21 32 70 137 169 196 228
300 299 298 295 292 285 278 285 290 287 284 282 293 280 157 152 181 198 215 257 259 245 239 240 245 251 249 246 253 268 293 289 240 211 194 187 181 175 163 160 164 162 149 144 132 150 186 199 189 168 146 123 112 143 130 123 132 124 127 133 154 169 141 179 84 14 15 103 160 110 83 62 38 47 40 39 48 46 39 39 38 32 37 50 55 66 107 235
297 296 296 297 296 289 278 275 277 282 282 278 263 173 139 132 239 243 249 272 277 258 240 235 238 243 245 246 249 251 248 244 250 242 208 185 184 182 167 161 168 155 155 175 170 166 186 198 180 154 139 122 103 138 131 118 126 119 140 158 162 145 179 181 117 50 23 68 153 123 91 67 34 46 48 47 54 52 48 49 47 44 45 48 48 49 50 44
295 293 294 298 298 293 287 276 277 285 278 265 195 159 149 187 260 251 239 247 283 265 243 237 234 236 241 246 244 234 225 224 236 239 207 185 181 179 170 161 158 159 172 183 176 169 168 164 152 142 151 146 127 144 146 137 150 149 174 178 161 171 207 160 118 127 65 50 151 128 97 62 17 27 39 44 56 55 50 52 49 46 47 50 52 51 49 43
292 290 292 297 294 290 287 282 284 281 263 228 157 158 159 199 259 258 227 249 274 252 248 235 227 237 238 235 228 216 213 223 228 226 204 190 182 168 161 164 166 177 174 166 169 174 165 142 146 147 165 157 135 154 180 163 155 177 215 205 185 180 196 125 105 139 124 141 201 163 106 87 13 25 33 29 52 56 52 53 48 44 48 53 54 52 51 49
288 288 292 292 287 280 279 286 286 260 241 176 157 166 173 213 276 229 172 289 274 194 192 198 205 228 218 206 204 196 185 234 231 223 205 197 188 169 153 159 167 178 163 151 165 179 140 146 155 157 162 161 149 161 192 175 151 177 204 192 169 152 177 168 145 155 156 163 158 333 183 136 44 25 27 19 51 58 53 55 50 47 50 54 58 57 56 55
284 286 289 288 286 278 274 279 264 252 241 176 170 176 200 273 262 179 166 297 263 173 144 167 188 196 194 192 183 174 162 207 212 216 203 193 187 177 167 162 149 159 151 145 179 178 131 148 157 157 157 165 169 167 189 176 152 168 183 165 156 160 187 182 175 200 207 120 92 21 189 129 115 21 9 2 53 58 53 56 54 51 49 51 57 58 57 56
281 284 287 287 284 271 266 268 260 253 207 174 178 184 251 275 198 166 186 275 177 141 139 162 172 171 180 182 174 167 157 162 169 201 194 186 181 176 172 177 165 154 161 175 180 155 140 167 167 158 163 182 182 164 170 170 163 187 158 152 159 169 178 168 181 201 115 198 180 123 350 130 112 359 355 358 60 64 55 55 55 48 44 47 51 52 52 53
278 282 286 284 277 263 258 260 255 223 184 188 193 217 260 222 164 163 242 242 173 108 125 150 154 159 152 161 177 181 165 162 167 176 178 181 185 181 170 175 163 146 159 197 184 152 179 191 176 161 170 188 180 157 168 174 174 140 127 115 107 86 94 124 181 179 121 227 197 133 295 154 110 37 346 59 77 81 65 58 57 48 46 48 48 47 46 48
276 279 282 279 274 266 264 259 238 194 195 200 209 244 219 164 156 190 190 212 234 52 103 153 155 157 149 150 187 205 183 166 134 145 161 176 181 176 154 159 156 140 139 196 175 142 30 183 178 177 183 174 153 138 169 175 140 128 124 108 100 80 67 95 73 104 186 219 185 33 303 244 132 184 204 135 101 108 97 72 58 49 50 50 48 44 42 45
276 275 274 272 267 262 267 262 224 201 198 199 218 189 161 151 174 222 172 273 303 47 69 161 156 148 156 159 176 194 208 119 138 143 153 167 168 154 138 149 146 136 145 171 175 135 55 142 169 205 181 147 121 111 117 135 131 137 131 129 132 108 115 142 96 189 211 206 126 18 303 312 132 170 164 148 132 116 98 79 64 55 53 51 50 46 41 43
274 272 270 267 260 250 246 230 189 188 185 190 203 163 156 165 251 217 219 324 301 349 23 87 163 160 170 170 160 174 180 153 157 158 154 161 166 159 158 167 160 152 170 179 168 166 154 159 198 221 176 159 137 125 114 101 162 170 149 155 164 156 166 180 176 194 206 192 55 311 292 47 84 119 135 137 123 101 85 77 72 64 60 55 52 46 41 43
276 273 269 263 255 242 220 198 201 203 203 222 185 168 173 220 197 209 260 318 15 312 356 2 299 185 173 173 162 171 171 155 169 166 155 160 166 162 158 165 156 151 175 171 160 174 185 221 244 190 180 176 158 147 154 162 182 181 167 174 178 167 167 174 172 178 186 141 43 314 293 114 112 127 130 115 97 93 87 80 75 68 63 60 55 48 44 45
280 275 269 257 246 235 206 204 216 223 233 222 169 183 200 210 215 232 250 315 1 272 298 349 332 195 177 186 163 162 164 164 170 162 152 159 165 165 155 167 167 126 115 156 161 179 183 215 200 179 176 174 168 171 163 153 165 172 166 181 178 172 170 161 160 164 151 122 67 345 328 137 139 134 125 113 100 93 90 85 76 68 62 58 55 48 44 44
282 275 269 251 233 225 212 208 209 214 218 183 162 205 200 197 261 298 251 339 349 311 325 330 321 210 189 200 160 165 176 161 162 157 156 163 164 164 159 170 183 143 136 166 176 173 180 218 196 169 164 171 173 179 148 139 153 172 145 161 182 174 135 105 105 100 113 116 67 19 38 80 109 125 124 115 105 100 97 89 76 66 60 55 52 46 41 42
287 277 268 246 222 221 219 208 201 201 197 172 180 209 208 220 272 60 351 348 40 358 341 319 282 191 184 175 162 178 195 105 156 155 156 165 161 162 163 168 177 169 155 161 162 150 161 188 173 120 170 187 176 159 153 155 149 143 174 179 176 113 108 117 114 43 80 145 107 49 128 120 120 140 140 127 114 113 101 84 74 68 64 58 54 47 42 42
295 285 265 234 211 217 215 204 197 191 180 176 204 201 207 249 237 156 295 16 101 98 11 335 275 200 187 165 164 179 173 119 159 165 150 161 160 163 172 170 170 178 172 156 177 212 180 162 127 164 180 207 162 129 113 75 130 141 178 168 121 63 86 113 126 108 144 139 116 229 159 153 164 163 152 143 125 113 94 78 76 72 65 61 56 49 45 43
306 303 285 238 205 207 206 196 189 184 174 184 218 205 202 227 220 158 140 33 44 92 66 300 288 302 207 172 161 174 169 150 161 160 150 171 200 162 168 169 174 190 187 173 156 209 192 147 105 226 169 129 113 128 107 41 64 120 156 149 135 164 167 150 136 153 153 119 137 191 186 181 185 174 166 158 135 118 105 83 74 67 61 58 53 46 44 44
314 310 303 284 210 203 202 187 177 175 176 198 208 202 203 234 249 233 106 356 317 349 70 236 258 300 270 213 156 158 162 156 155 147 157 189 187 168 188 172 172 200 199 184 152 122 221 165 147 307 103 121 122 155 160 150 74 58 130 141 166 189 162 156 123 146 149 133 153 164 188 208 189 184 192 165 139 132 125 102 83 75 67 60 52 45 42 44
299 289 302 322 235 202 184 165 162 168 191 208 202 220 252 271 277 293 357 346 311 281 249 250 250 272 282 271 169 150 127 137 147 145 171 165 125 188 242 196 159 185 193 171 154 129 51 177 134 94 247 171 152 219 202 167 134 140 155 153 132 95 110 128 87 46 133 143 151 155 185 206 167 91 157 133 127 132 126 116 104 89 80 69 59 53 48 47
280 262 311 345 203 165 151 145 152 175 204 210 197 244 264 292 327 321 320 307 285 262 250 250 251 259 276 277 174 142 95 111 136 121 123 156 157 198 214 194 169 160 142 136 174 170 162 111 116 108 119 140 116 357 273 242 165 153 165 166 144 125 137 151 146 88 80 128 150 157 179 180 116 67 103 110 113 118 115 117 109 93 87 77 65 60 56 53
291 191 36 31 145 143 139 143 163 177 183 204 222 245 257 26 7 316 306 289 265 241 233 242 244 242 247 243 192 128 108 83 69 95 121 150 198 174 172 200 179 155 147 147 167 160 128 92 94 88 87 99 89 75 76 129 107 88 86 131 136 131 152 166 176 160 115 104 127 129 165 146 101 80 107 106 102 102 105 109 104 94 87 78 69 64 60 56
232 142 66 129 145 140 139 164 161 171 208 255 263 263 237 109 42 284 282 273 253 226 225 235 225 217 223 222 177 129 127 79 38 100 119 110 155 207 240 209 176 151 148 141 133 164 152 86 94 100 97 97 102 104 87 79 90 80 56 33 22 41 124 136 154 144 136 140 138 144 179 153 125 109 107 106 101 95 89 93 96 92 84 77 70 64 59 58
137 66 89 148 147 124 150 179 147 192 219 249 259 281 60 105 245 246 252 254 243 240 261 251 221 210 224 209 149 133 137 94 41 76 91 121 152 14 269 186 171 140 153 182 162 167 170 10 91 125 120 111 116 140 140 90 65 71 60 15 2 60 102 105 101 111 140 166 170 173 172 140 133 126 113 109 102 88 81 85 90 88 84 78 70 62 60 63
135 63 111 159 159 10 337 203 310 198 203 228 236 40 56 244 244 238 238 244 241 239 253 271 258 225 217 163 109 89 77 89 101 135 80 135 138 20 53 173 184 124 83 133 124 126 121 29 12 148 141 144 142 144 149 120 89 73 54 16 17 53 100 113 122 146 169 165 178 194 154 127 137 135 125 118 103 90 87 86 84 82 82 80 72 63 61 63
223 71 123 172 201 308 296 282 288 194 181 191 72 30 231 248 266 246 237 243 245 234 231 275 272 236 189 116 96 65 31 51 87 125 168 138 136 359 49 113 137 104 99 102 101 107 101 50 44 59 87 109 102 72 24 87 110 93 49 19 18 7 327 58 137 168 156 148 174 229 136 145 155 149 137 128 111 103 97 84 81 79 76 76 72 64 62 60
7 105 138 172 213 264 280 278 264 226 169 152 144 287 237 242 278 259 238 229 208 190 197 264 272 138 123 120 107 65 29 42 64 101 141 67 115 102 58 83 97 99 102 92 79 92 105 70 55 59 67 71 75 79 76 83 89 82 66 41 26 9 335 93 121 128 131 144 177 171 145 152 158 149 137 129 118 109 95 82 82 81 76 77 72 66 65 59
8 124 174 185 193 190 250 255 230 220 150 138 167 254 234 246 265 257 248 230 185 175 186 256 338 20 42 115 109 98 91 71 36 71 130 86 125 124 62 67 59 71 100 81 50 86 101 79 81 84 77 71 74 82 85 89 87 75 66 58 45 45 57 75 71 19 117 141 148 148 146 143 138 134 127 117 112 104 93 87 89 87 82 78 70 65 63 56
336 341 206 213 239 233 243 230 187 178 118 112 196 254 248 262 267 251 255 281 300 19 98 75 12 18 27 66 97 122 142 132 122 196 179 112 96 102 96 89 54 50 81 77 61 89 90 86 114 104 81 65 66 79 89 92 88 72 60 57 59 65 68 76 82 73 70 82 110 128 126 109 106 117 108 103 103 99 94 90 86 82 78 73 69 65 61 54
6 340 323 281 272 253 255 229 153 148 112 130 222 264 248 256 271 271 277 322 358 356 36 80 73 60 62 62 77 102 173 159 129 144 191 153 115 115 124 140 88 54 48 64 81 62 86 128 145 113 80 62 64 84 92 91 88 75 58 49 56 66 65 67 74 71 77 94 110 116 111 97 94 103 101 102 100 95 93 89 80 76 73 71 69 65 60 54
319 313 302 288 283 245 240 62 126 120 94 172 227 257 231 244 276 284 11 35 45 33 30 95 96 73 64 64 60 48 23 73 89 99 125 117 98 84 67 74 185 112 55 59 71 32 87 137 174 151 88 76 85 97 93 92 92 77 53 37 39 54 62 59 52 50 102 125 125 121 118 116 116 109 102 98 95 93 90 85 79 75 73 73 69 63 60 57
322 316 287 266 296 301 279 69 97 144 167 199 216 232 249 272 293 293 73 31 33 40 22 13 87 76 66 62 40 16 91 94 93 94 96 91 83 78 80 77 65 61 92 100 54 32 112 137 164 161 98 125 172 136 18 220 127 83 35 13 28 73 90 75 49 43 83 128 132 129 129 126 125 120 109 98 94 88 81 79 81 79 77 74 68 62 61 59
Height
1500 1499 1498 1498 1498 1497 1496 1496 1495 1495 1494 1493 1493 1493 1492 1492 1492 1492 1493 1493 1493 1493 1493 1492 1492 1492 1492 1492 1491 1491 1491 1491 1491 1491 1487 1487 1491 1494 1494 1495 1495 1495 1496 1497 1498 1499 1501 1502 1503 1504 1504 1506 1507 1508 1509 1510 1511 1512 1513 1516 1517 1517 1514 1510 1510 1510 1508 1507 1505 1505 1505 1505 1503 1503 1502 1502 1503 1502 1503 1505 1506 1507 1507 1508 1509 1510 1511 1513
1499 1498 1497 1497 1497 1496 1496 1495 1494 1494 1493 1492 1492 1491 1491 1491 1491 1491 1491 1492 1492 1491 1491 1491 1491 1491 1491 1490 1490 1490 1490 1489 1489 1487 1484 1487 1491 1491 1492 1493 1494 1494 1494 1496 1496 1498 1500 1501 1502 1503 1504 1505 1506 1507 1508 1509 1510 1511 1513 1515 1513 1512 1510 1508 1508 1508 1508 1508 1506 1506 1506 1505 1503 1503 1503 1503 1504 1504 1504 1506 1507 1508 1508 1509 1510 1511 1512 1513
1497 1497 1496 1496 1495 1495 1494 1494 1493 1492 1492 1491 1490 1490 1490 1490 1490 1490 1490 1490 1490 1490 1490 1490 1489 1489 1489 1489 1489 1489 1488 1488 1487 1484 1483 1487 1488 1488 1490 1491 1492 1492 1493 1495 1496 1498 1499 1500 1502 1502 1504 1505 1506 1507 1508 1508 1509 1509 1512 1513 1509 1508 1508 1507 1508 1508 1508 1508 1508 1507 1506 1505 1504 1503 1503 1503 1504 1504 1503 1505 1507 1509 1510 1510 1510 1511 1512 1513
1496 1496 1495 1495 1494 1494 1493 1492 1491 1491 1491 1490 1489 1489 1489 1488 1489 1488 1488 1489 1489 1489 1488 1488 1488 1488 1488 1488 1489 1488 1488 1487 1483 1481 1482 1483 1485 1486 1487 1488 1489 1490 1492 1494 1495 1497 1498 1500 1501 1502 1503 1504 1505 1506 1507 1507 1507 1508 1509 1508 1506 1507 1507 1506 1507 1507 1508 1509 1509 1508 1506 1504 1504 1504 1503 1502 1503 1504 1502 1503 1505 1507 1508 1509 1510 1511 1512 1513
1495 1494 1494 1493 1493 1492 1492 1491 1490 1490 1489 1489 1488 1487 1487 1487 1487 1487 1487 1487 1487 1487 1487 1487 1486 1487 1487 1487 1488 1488 1489 1486 1480 1479 1480 1481 1482 1483 1484 1485 1487 1488 1490 1492 1493 1495 1497 1499 1500 1502 1503 1503 1505 1505 1505 1505 1506 1507 1506 1505 1506 1507 1506 1505 1506 1507 1507 1508 1508 1508 1506 1504 1503 1503 1503 1502 1503 1503 1501 1502 1504 1505 1505 1507 1508 1510 1512 1513
1493 1493 1492 1492 1491 1491 1490 1489 1489 1488 1488 1487 1487 1486 1486 1486 1485 1485 1485 1485 1486 1485 1485 1485 1485 1486 1486 1486 1487 1487 1488 1483 1478 1479 1479 1479 1481 1481 1483 1483 1485 1486 1488 1490 1492 1494 1495 1497 1499 1501 1501 1502 1503 1503 1503 1504 1505 1504 1504 1505 1505 1506 1505 1504 1505 1506 1506 1507 1507 1506 1505 1504 1504 1503 1503 1503 1502 1502 1501 1502 1504 1505 1505 1507 1507 1509 1511 1512
1492 1491 1491 1490 1490 1489 1488 1488 1487 1487 1486 1486 1485 1485 1484 1484 1484 1484 1484 1484 1484 1484 1484 1483 1484 1484 1484 1485 1485 1486 1486 1480 1477 1479 1479 1479 1480 1480 1482 1482 1483 1484 1486 1488 1490 1492 1494 1495 1497 1499 1500 1501 1502 1501 1501 1503 1504 1503 1504 1504 1504 1504 1504 1504 1505 1505 1505 1505 1504 1504 1504 1504 1504 1502 1503 1503 1502 1502 1502 1502 1503 1505 1506 1507 1508 1509 1510 1511
1490 1490 1489 1489 1488 1487 1486 1486 1485 1485 1485 1484 1484 1483 1483 1483 1483 1482 1482 1482 1482 1483 1482 1482 1482 1482 1483 1484 1484 1485 1483 1477 1476 1479 1478 1478 1478 1479 1480 1480 1481 1482 1484 1486 1487 1490 1492 1494 1495 1497 1498 1498 1499 1500 1500 1502 1503 1503 1503 1503 1503 1503 1503 1503 1503 1503 1503 1502 1502 1502 1502 1503 1502 1502 1502 1502 1502 1502 1502 1502 1503 1504 1506 1507 1508 1509 1510 1511
1489 1488 1488 1487 1487 1486 1485 1484 1484 1483 1483 1483 1482 1482 1481 1481 1481 1481 1481 1481 1481 1481 1481 1481 1481 1481 1482 1482 1483 1483 1478 1474 1476 1477 1477 1477 1477 1478 1479 1479 1480 1481 1483 1485 1487 1489 1491 1492 1493 1494 1495 1496 1497 1498 1499 1501 1501 1500 1501 1501 1501 1501 1502 1503 1502 1501 1501 1501 1501 1500 1500 1501 1501 1501 1502 1502 1502 1501 1501 1502 1503 1504 1506 1507 1508 1509 1510 1510
1488 1487 1486 1485 1485 1484 1483 1483 1482 1482 1482 1481 1481 1480 1479 1479 1479 1479 1479 1480 1480 1480 1480 1480 1479 1480 1480 1480 1482 1481 1474 1474 1475 1475 1475 1475 1476 1477 1478 1478 1478 1480 1482 1484 1487 1488 1489 1490 1491 1493 1494 1495 1496 1497 1499 1499 1498 1497 1499 1500 1500 1500 1501 1502 1500 1500 1500 1499 1499 1499 1499 1500 1500 1501 1502 1502 1502 1502 1502 1502 1504 1505 1505 1506 1507 1508 1509 1510
1486 1485 1485 1484 1483 1482 1481 1481 1480 1480 1480 1479 1479 1478 1478 1478 1478 1478 1478 1478 1478 1478 1478 1478 1478 1478 1478 1478 1480 1477 1473 1473 1474 1474 1475 1474 1475 1476 1477 1477 1477 1479 1481 1483 1485 1487 1488 1489 1491 1493 1494 1495 1496 1497 1497 1497 1496 1497 1498 1499 1499 1499 1500 1500 1499 1499 1499 1497 1497 1497 1497 1497 1499 1500 1500 1501 1501 1502 1502 1502 1504 1505 1506 1506 1507 1508 1509 1511
1484 1484 1483 1482 1482 1481 1480 1479 1479 1478 1478 1478 1477 1476 1476 1476 1476 1476 1477 1477 1477 1477 1477 1477 1477 1476 1476 1476 1474 1472 1472 1473 1473 1473 1474 1473 1474 1475 1476 1477 1477 1479 1481 1483 1485 1486 1488 1490 1492 1492 1492 1493 1495 1496 1496 1495 1496 1497 1497 1498 1497 1498 1498 1498 1497 1497 1498 1497 1496 1496 1498 1498 1498 1499 1500 1500 1501 1501 1502 1502 1503 1504 1505 1506 1507 1509 1510 1512
1483 1482 1481 1480 1480 1479 1478 1477 1477 1476 1476 1476 1475 1474 1474 1474 1475 1475 1475 1475 1475 1475 1475 1475 1475 1475 1476 1473 1468 1469 1472 1472 1471 1472 1473 1473 1474 1475 1476 1477 1478 1480 1482 1484 1485 1487 1488 1490 1491 1492 1492 1493 1494 1495 1494 1494 1496 1496 1497 1497 1497 1498 1497 1495 1496 1497 1496 1497 1495 1496 1502 1500 1498 1499 1500 1500 1501 1501 1502 1502 1503 1503 1504 1506 1507 1509 1511 1512
1481 1480 1479 1479 1478 1477 1476 1476 1476 1475 1474 1474 1473 1472 1472 1472 1473 1473 1473 1473 1473 1474 1474 1474 1474 1474 1474 1469 1465 1468 1469 1470 1469 1469 1471 1472 1474 1475 1476 1478 1479 1480 1482 1484 1486 1487 1488 1490 1491 1492 1492 1492 1493 1494 1494 1495 1495 1495 1497 1498 1500 1501 1498 1494 1495 1496 1495 1496 1495 1496 1502 1500 1498 1501 1501 1500 1501 1501 1502 1502 1503 1503 1504 1505 1507 1510 1511 1512
1479 1478 1477 1477 1476 1475 1474 1474 1474 1473 1472 1471 1471 1470 1470 1471 1471 1471 1472 1471 1472 1472 1472 1473 1473 1474 1473 1467 1463 1465 1465 1467 1467 1467 1469 1471 1473 1475 1476 1477 1479 1481 1482 1484 1486 1487 1488 1489 1490 1491 1492 1491 1492 1493 1494 1495 1496 1496 1498 1502 1503 1502 1498 1495 1495 1496 1495 1496 1496 1497 1501 1500 1500 1503 1502 1500 1501 1503 1504 1504 1504 1504 1504 1505 1508 1511 1512 1513
1478 1476 1475 1475 1474 1473 1473 1472 1472 1471 1470 1469 1469 1468 1468 1469 1469 1469 1469 1470 1471 1471 1471 1472 1472 1473 1473 1466 1462 1462 1462 1464 1464 1465 1467 1469 1471 1474 1475 1477 1479 1481 1482 1484 1485 1486 1487 1489 1490 1491 1490 1490 1491 1492 1494 1497 1498 1498 1498 1501 1504 1501 1499 1497 1495 1496 1496 1496 1497 1497 1499 1500 1503 1504 1503 1502 1502 1504 1505 1505 1505 1505 1505 1508 1510 1512 1512 1513
1476 1474 1474 1473 1472 1472 1471 1471 1470 1469 1468 1467 1466 1466 1466 1466 1466 1467 1467 1468 1469 1469 1471 1471 1471 1474 1469 1462 1460 1460 1460 1461 1462 1463 1465 1467 1470 1472 1474 1476 1478 1480 1481 1483 1485 1485 1486 1488 1490 1490 1489 1490 1490 1490 1496 1501 1500 1500 1499 1500 1505 1503 1500 1499 1496 1496 1496 1496 1497 1497 1499 1503 1506 1506 1505 1504 1503 1504 1505 1505 1505 1505 1506 1509 1511 1512 1513 1513
1474 1473 1472 1472 1471 1470 1469 1469 1468 1467 1466 1465 1464 1464 1465 1464 1464 1465 1465 1466 1468 1470 1471 1471 1472 1472 1463 1457 1458 1458 1458 1460 1460 1461 1463 1465 1468 1471 1473 1475 1476 1479 1481 1482 1484 1485 1486 1488 1489 1489 1489 1491 1490 1489 1494 1498 1497 1498 1498 1498 1503 1504 1502 1501 1498 1497 1496 1495 1497 1497 1500 1506 1508 1507 1507 1506 1504 1504 1505 1505 1504 1505 1506 1509 1510 1511 1511 1512
1473 1472 1471 1470 1470 1469 1468 1467 1466 1465 1464 1463 1463 1463 1463 1463 1463 1464 1464 1465 1466 1467 1467 1465 1466 1464 1457 1454 1456 1456 1457 1458 1459 1459 1461 1463 1466 1469 1472 1474 1475 1477 1479 1481 1483 1484 1485 1487 1489 1489 1488 1489 1489 1487 1489 1491 1490 1493 1496 1495 1498 1500 1500 1500 1498 1498 1497 1497 1499 1501 1505 1510 1510 1509 1508 1507 1506 1505 1506 1505 1504 1505 1506 1508 1509 1509 1511 1512
1471 1470 1469 1469 1468 1467 1467 1466 1464 1463 1462 1462 1462 1462 1463 1463 1463 1463 1463 1462 1460 1460 1459 1458 1458 1456 1454 1455 1455 1455 1456 1457 1458 1458 1459 1461 1464 1468 1471 1473 1475 1476 1477 1478 1481 1483 1484 1486 1487 1485 1485 1486 1487 1487 1487 1489 1489 1491 1495 1496 1498 1498 1497 1498 1497 1498 1497 1500 1508 1508 1509 1514 1513 1512 1511 1509 1507 1505 1506 1506 1506 1506 1506 1508 1509 1510 1511 1512
1469 1468 1468 1467 1466 1466 1465 1464 1463 1462 1461 1460 1461 1461 1461 1461 1461 1461 1461 1459 1456 1456 1456 1455 1456 1454 1453 1454 1454 1454 1457 1456 1456 1457 1458 1460 1463 1466 1469 1471 1473 1476 1477 1477 1479 1482 1483 1484 1483 1482 1483 1485 1487 1488 1488 1490 1491 1492 1493 1496 1500 1498 1495 1496 1497 1499 1497 1502 1513 1512 1510 1517 1517 1515 1513 1510 1508 1507 1509 1509 1508 1508 1508 1509 1510 1510 1512 1512
1467 1466 1466 1465 1464 1464 1463 1462 1461 1460 1459 1459 1460 1460 1460 1460 1460 1459 1460 1458 1453 1453 1453 1453 1455 1452 1449 1451 1453 1455 1458 1457 1455 1455 1457 1459 1461 1463 1466 1469 1471 1474 1476 1478 1479 1482 1484 1483 1481 1481 1483 1485 1489 1491 1489 1490 1492 1492 1494 1496 1497 1497 1497 1497 1498 1501 1498 1501 1513 1512 1511 1519 1519 1516 1515 1512 1510 1510 1511 1511 1510 1511 1510 1510 1511 1512 1513 1513
1465 1464 1464 1463 1462 1461 1461 1460 1459 1458 1458 1458 1458 1459 1459 1459 1458 1458 1459 1457 1451 1448 1448 1449 1450 1447 1445 1448 1451 1454 1456 1456 1455 1454 1455 1457 1459 1461 1463 1466 1469 1472 1475 1476 1476 1481 1484 1481 1479 1481 1483 1485 1490 1492 1490 1491 1493 1493 1494 1495 1496 1498 1498 1496 1499 1503 1500 1501 1508 1508 1510 1518 1519 1517 1515 1513 1513 1512 1512 1512 1512 1512 1512 1513 1514 1513 1514 1515
1463 1462 1462 1460 1460 1459 1459 1458 1457 1457 1456 1456 1456 1457 1458 1458 1458 1457 1458 1456 1450 1445 1443 1444 1445 1443 1442 1446 1449 1451 1453 1453 1453 1452 1453 1455 1457 1459 1461 1464 1468 1471 1473 1473 1473 1476 1478 1476 1478 1481 1483 1484 1488 1492 1490 1490 1495 1496 1495 1493 1495 1497 1495 1494 1499 1502 1502 1504 1505 1502 1508 1519 1520 1520 1519 1514 1514 1513 1513 1513 1512 1514 1515 1515 1516 1515 1516 1516
1461 1461 1460 1459 1459 1457 1457 1456 1455 1455 1454 1454 1455 1456 1457 1457 1456 1457 1457 1455 1449 1442 1440 1440 1441 1439 1439 1444 1447 1448 1450 1450 1449 1450 1452 1453 1455 1457 1460 1462 1466 1469 1472 1473 1474 1474 1474 1475 1477 1481 1483 1483 1486 1490 1489 1487 1493 1498 1495 1492 1491 1492 1492 1494 1498 1499 1502 1508 1506 1501 1509 1523 1524 1522 1523 1517 1514 1515 1514 1513 1514 1516 1518 1517 1518 1517 1517 1518
1459 1458 1457 1457 1457 1456 1456 1454 1453 1454 1453 1454 1454 1455 1456 1455 1455 1456 1456 1455 1446 1438 1436 1437 1436 1434 1435 1440 1443 1447 1451 1447 1444 1448 1450 1452 1454 1455 1458 1462 1463 1467 1470 1472 1473 1473 1474 1475 1476 1478 1482 1483 1484 1487 1487 1486 1492 1496 1492 1490 1491 1491 1492 1494 1495 1496 1500 1506 1506 1503 1508 1522 1526 1523 1525 1521 1516 1517 1514 1515 1518 1520 1521 1520 1519 1519 1519 1519
1457 1456 1456 1455 1455 1454 1454 1453 1453 1452 1452 1453 1453 1454 1455 1454 1455 1455 1454 1455 1444 1430 1431 1435 1433 1431 1431 1434 1437 1444 1447 1442 1441 1446 1447 1449 1453 1453 1456 1460 1462 1466 1468 1471 1474 1473 1473 1476 1478 1478 1480 1483 1483 1484 1485 1485 1490 1492 1488 1488 1492 1492 1492 1494 1493 1495 1499 1501 1504 1504 1502 1513 1525 1524 1525 1522 1518 1518 1516 1518 1522 1523 1524 1522 1520 1521 1520 1520
1455 1454 1454 1453 1453 1453 1452 1452 1451 1451 1451 1452 1452 1454 1454 1453 1455 1455 1454 1452 1438 1423 1426 1431 1430 1429 1431 1433 1435 1437 1438 1437 1438 1442 1444 1448 1452 1452 1454 1457 1458 1463 1465 1467 1472 1471 1470 1474 1476 1476 1479 1481 1480 1480 1483 1484 1486 1487 1486 1488 1490 1490 1491 1493 1492 1494 1501 1502 1502 1504 1501 1510 1526 1527 1523 1522 1519 1520 1521 1521 1524 1525 1525 1523 1521 1522 1522 1522
1453 1452 1452 1452 1451 1451 1451 1450 1449 1450 1450 1451 1452 1453 1453 1453 1454 1454 1454 1446 1428 1420 1423 1425 1427 1429 1430 1433 1435 1434 1434 1436 1436 1438 1442 1447 1450 1450 1453 1455 1456 1460 1463 1464 1467 1469 1469 1469 1470 1472 1475 1476 1476 1478 1480 1481 1483 1484 1486 1490 1491 1493 1494 1495 1494 1494 1501 1503 1500 1506 1506 1510 1527 1530 1523 1524 1523 1523 1524 1524 1526 1528 1527 1525 1523 1523 1523 1523
1451 1450 1450 1450 1449 1449 1448 1448 1447 1448 1449 1449 1451 1451 1451 1453 1452 1453 1456 1442 1424 1421 1424 1424 1426 1428 1429 1433 1435 1435 1434 1435 1435 1438 1442 1446 1449 1450 1451 1454 1456 1459 1463 1464 1465 1467 1468 1467 1468 1470 1470 1471 1473 1477 1479 1480 1481 1482 1486 1490 1492 1496 1496 1496 1498 1496 1501 1504 1503 1513 1513 1506 1521 1532 1527 1526 1525 1523 1524 1525 1528 1529 1528 1526 1525 1525 1525 1524
1448 1448 1448 1448 1448 1447 1446 1446 1446 1446 1448 1449 1450 1450 1450 1451 1451 1452 1450 1434 1423 1425 1424 1425 1427 1426 1428 1430 1432 1435 1435 1435 1435 1437 1442 1444 1447 1450 1450 1455 1457 1460 1465 1466 1466 1468 1468 1469 1470 1468 1467 1469 1472 1478 1482 1481 1481 1482 1484 1488 1493 1497 1498 1498 1500 1501 1505 1506 1505 1516 1514 1503 1515 1530 1528 1525 1524 1522 1524 1527 1530 1530 1529 1528 1527 1527 1527 1526
1446 1446 1446 1445 1445 1445 1444 1444 1445 1445 1446 1448 1449 1449 1449 1450 1451 1449 1439 1427 1427 1429 1425 1426 1427 1426 1428 1427 1428 1431 1432 1434 1435 1434 1438 1441 1445 1447 1448 1451 1454 1461 1469 1468 1467 1470 1468 1467 1467 1466 1467 1467 1470 1477 1484 1484 1482 1482 1482 1486 1493 1500 1505 1505 1505 1506 1505 1504 1508 1515 1511 1508 1519 1526 1523 1523 1524 1524 1525 1528 1530 1531 1531 1530 1529 1529 1529 1528
1444 1443 1443 1443 1442 1442 1442 1443 1444 1444 1445 1446 1448 1447 1448 1450 1449 1441 1433 1429 1431 1432 1427 1427 1426 1425 1428 1427 1427 1429 1430 1432 1434 1434 1436 1438 1443 1446 1448 1449 1449 1455 1464 1466 1468 1471 1470 1468 1465 1466 1467 1465 1466 1473 1481 1484 1482 1481 1481 1482 1488 1498 1508 1513 1513 1512 1508 1506 1512 1513 1509 1516 1526 1524 1521 1523 1525 1525 1527 1529 1531 1532 1531 1531 1532 1531 1531 1530
1441 1440 1440 1440 1440 1439 1441 1442 1442 1443 1445 1445 1446 1447 1448 1451 1445 1435 1433 1432 1432 1432 1430 1428 1426 1424 1425 1425 1425 1427 1430 1433 1432 1433 1436 1438 1443 1447 1448 1450 1449 1450 1457 1465 1468 1468 1471 1472 1464 1462 1464 1462 1463 1466 1469 1475 1477 1478 1477 1478 1483 1488 1496 1506 1508 1507 1508 1509 1511 1511 1512 1519 1524 1523 1522 1524 1525 1527 1529 1531 1532 1532 1532 1532 1532 1531 1531 1531
1438 1438 1438 1437 1437 1438 1439 1440 1441 1442 1444 1444 1445 1446 1447 1447 1441 1435 1435 1433 1431 1432 1431 1428 1427 1426 1425 1424 1423 1423 1426 1431 1432 1434 1436 1438 1441 1445 1446 1447 1448 1450 1454 1463 1467 1466 1469 1467 1457 1457 1460 1458 1460 1462 1462 1468 1477 1481 1478 1479 1482 1478 1483 1501 1509 1507 1506 1508 1514 1520 1522 1521 1520 1521 1522 1523 1525 1528 1530 1531 1532 1532 1533 1532 1532 1532 1532 1532
1436 1436 1436 1435 1436 1437 1437 1438 1439 1441 1442 1443 1445 1446 1445 1441 1437 1436 1436 1434 1434 1435 1434 1429 1425 1426 1425 1423 1424 1424 1423 1427 1431 1434 1437 1438 1439 1442 1442 1443 1445 1447 1449 1455 1463 1465 1467 1463 1456 1457 1459 1456 1456 1458 1460 1464 1472 1481 1481 1480 1480 1475 1479 1497 1512 1515 1508 1506 1521 1532 1528 1524 1524 1523 1522 1523 1526 1528 1530 1531 1532 1533 1534 1533 1534 1535 1535 1534
1434 1434 1434 1433 1434 1435 1435 1436 1438 1440 1442 1442 1443 1443 1442 1438 1435 1435 1436 1436 1436 1438 1440 1436 1427 1424 1425 1423 1423 1423 1422 1427 1431 1433 1438 1440 1440 1441 1441 1441 1443 1444 1444 1448 1456 1459 1460 1459 1457 1456 1456 1456 1456 1456 1460 1460 1463 1474 1478 1476 1477 1479 1482 1486 1500 1514 1509 1510 1528 1534 1527 1525 1526 1524 1523 1524 1527 1529 1530 1531 1532 1534 1534 1534 1536 1536 1536 1535
1433 1433 1432 1432 1433 1433 1434 1435 1438 1440 1441 1442 1442 1440 1438 1437 1434 1434 1436 1437 1436 1437 1442 1442 1433 1425 1423 1422 1422 1420 1420 1426 1430 1433 1437 1440 1440 1439 1439 1440 1442 1442 1442 1443 1449 1454 1455 1458 1459 1456 1455 1457 1456 1457 1463 1463 1461 1464 1467 1468 1473 1481 1484 1486 1496 1505 1508 1523 1536 1532 1528 1526 1521 1522 1522 1523 1527 1529 1530 1532 1533 1533 1534 1535 1536 1536 1536 1535
1433 1433 1432 1432 1432 1432 1433 1435 1437 1440 1440 1441 1441 1438 1436 1435 1433 1433 1435 1436 1436 1437 1441 1443 1437 1429 1423 1421 1421 1420 1420 1424 1429 1432 1436 1438 1439 1438 1437 1438 1440 1442 1442 1441 1445 1452 1454 1457 1461 1457 1455 1457 1457 1459 1464 1465 1464 1463 1464 1467 1469 1473 1477 1483 1490 1489 1499 1525 1534 1529 1532 1526 1516 1519 1519 1519 1525 1527 1529 1533 1533 1534 1535 1536 1536 1537 1537 1536
1433 1432 1431 1431 1431 1432 1433 1436 1438 1440 1440 1440 1440 1438 1435 1434 1432 1432 1434 1436 1437 1438 1441 1441 1439 1434 1427 1421 1420 1420 1421 1424 1427 1431 1434 1436 1438 1439 1437 1437 1438 1440 1442 1442 1445 1450 1452 1455 1459 1459 1457 1457 1460 1463 1462 1461 1462 1464 1466 1469 1471 1475 1476 1480 1489 1491 1496 1515 1524 1527 1532 1523 1514 1519 1519 1519 1525 1526 1528 1532 1534 1535 1536 1537 1538 1538 1538 1538
1432 1432 1431 1430 1430 1431 1433 1436 1438 1439 1439 1439 1439 1437 1435 1434 1433 1432 1433 1437 1438 1437 1438 1438 1437 1435 1430 1424 1420 1419 1423 1427 1428 1431 1434 1434 1436 1438 1436 1435 1436 1438 1441 1444 1445 1447 1450 1453 1458 1461 1461 1461 1465 1466 1463 1461 1461 1461 1462 1465 1468 1473 1473 1478 1493 1498 1496 1503 1511 1516 1520 1517 1518 1522 1521 1523 1526 1527 1530 1532 1533 1536 1536 1538 1539 1539 1539 1539
1432 1431 1431 1431 1431 1432 1434 1436 1437 1437 1438 1438 1437 1436 1435 1434 1434 1435 1435 1436 1437 1435 1435 1434 1433 1432 1429 1424 1420 1419 1423 1429 1430 1430 1432 1433 1434 1435 1434 1434 1435 1436 1439 1443 1444 1445 1448 1452 1459 1464 1464 1465 1466 1466 1464 1464 1463 1461 1462 1467 1468 1465 1465 1472 1484 1494 1499 1503 1505 1507 1509 1514 1522 1524 1523 1526 1527 1529 1532 1532 1534 1536 1537 1538 1540 1540 1541 1540
1431 1431 1431 1432 1432 1433 1435 1436 1437 1437 1437 1436 1435 1434 1434 1434 1436 1437 1436 1436 1435 1432 1431 1429 1426 1425 1424 1420 1418 1418 1421 1429 1432 1431 1432 1434 1434 1434 1433 1433 1434 1435 1437 1441 1444 1445 1447 1453 1461 1465 1464 1462 1463 1465 1465 1465 1464 1465 1469 1475 1475 1470 1468 1470 1473 1481 1495 1503 1502 1503 1507 1514 1523 1526 1525 1528 1529 1530 1533 1533 1534 1536 1537 1539 1540 1541 1541 1540
1431 1431 1432 1432 1433 1434 1435 1436 1437 1437 1436 1435 1434 1433 1434 1435 1436 1436 1436 1434 1432 1429 1428 1425 1420 1418 1418 1415 1415 1417 1419 1426 1433 1433 1432 1434 1433 1432 1432 1432 1433 1434 1435 1438 1440 1440 1448 1457 1460 1462 1468 1469 1467 1467 1465 1464 1468 1475 1480 1482 1480 1479 1475 1473 1475 1479 1490 1501 1499 1493 1500 1514 1523 1527 1527 1529 1530 1531 1533 1535 1535 1536 1538 1540 1541 1541 1541 1540
1432 1432 1433 1434 1434 1435 1435 1435 1436 1436 1435 1435 1435 1435 1436 1436 1434 1433 1433 1431 1428 1428 1426 1422 1417 1416 1415 1412 1413 1417 1418 1422 1429 1432 1433 1433 1433 1432 1432 1432 1433 1433 1434 1436 1435 1438 1454 1467 1463 1459 1466 1471 1471 1470 1469 1469 1474 1480 1485 1485 1483 1484 1478 1473 1477 1479 1485 1501 1500 1488 1497 1518 1526 1526 1528 1530 1530 1532 1535 1536 1536 1537 1540 1541 1541 1542 1541 1540
1431 1433 1435 1436 1436 1436 1436 1435 1435 1435 1435 1435 1436 1437 1438 1436 1432 1429 1428 1426 1424 1424 1424 1421 1416 1414 1412 1411 1415 1420 1420 1420 1423 1429 1432 1432 1432 1433 1433 1432 1433 1434 1435 1436 1436 1442 1460 1475 1473 1465 1464 1468 1472 1476 1477 1477 1478 1482 1487 1488 1487 1490 1487 1477 1475 1476 1482 1498 1501 1493 1501 1518 1524 1526 1529 1530 1531 1534 1536 1537 1537 1539 1540 1541 1542 1542 1541 1540
1431 1432 1434 1436 1436 1437 1436 1435 1434 1434 1433 1434 1436 1437 1436 1435 1431 1426 1422 1421 1420 1421 1423 1421 1415 1412 1411 1411 1415 1421 1424 1423 1424 1428 1432 1432 1432 1433 1434 1433 1434 1435 1436 1437 1438 1445 1460 1474 1479 1477 1477 1478 1481 1483 1480 1480 1483 1487 1491 1491 1488 1490 1487 1476 1475 1479 1482 1486 1493 1499 1506 1513 1520 1526 1528 1530 1533 1535 1537 1537 1538 1540 1541 1541 1542 1542 1541 1541
1432 1432 1432 1433 1434 1435 1434 1433 1432 1432 1432 1433 1435 1436 1433 1432 1431 1426 1421 1417 1416 1418 1420 1418 1414 1412 1411 1411 1414 1422 1427 1428 1430 1431 1432 1432 1432 1432 1434 1435 1435 1436 1436 1438 1441 1445 1458 1475 1481 1480 1483 1485 1484 1484 1482 1482 1487 1491 1492 1492 1491 1490 1486 1482 1487 1493 1488 1481 1486 1500 1509 1513 1521 1527 1529 1531 1534 1535 1538 1539 1540 1541 1541 1541 1542 1541 1541 1541
1433 1433 1433 1432 1432 1432 1432 1431 1430 1432 1433 1433 1434 1433 1431 1430 1428 1425 1421 1416 1414 1414 1414 1416 1416 1415 1414 1412 1414 1422 1426 1427 1431 1432 1431 1432 1432 1432 1435 1436 1437 1437 1436 1440 1444 1446 1459 1478 1482 1478 1483 1488 1486 1486 1486 1485 1488 1492 1494 1495 1494 1494 1492 1492 1495 1497 1493 1491 1494 1503 1512 1520 1526 1529 1530 1533 1535 1536 1539 1541 1541 1542 1541 1541 1542 1542 1542 1542
1434 1434 1433 1433 1432 1431 1431 1431 1431 1431 1433 1434 1434 1432 1430 1429 1425 1422 1421 1418 1415 1413 1413 1416 1419 1417 1416 1415 1416 1422 1425 1423 1424 1428 1430 1430 1431 1433 1435 1436 1438 1438 1438 1442 1446 1446 1457 1477 1482 1476 1482 1490 1491 1489 1488 1487 1490 1495 1500 1500 1498 1498 1499 1499 1500 1500 1499 1503 1507 1511 1517 1525 1530 1531 1532 1535 1536 1538 1540 1541 1542 1542 1541 1542 1543 1542 1543 1543
1435 1434 1434 1433 1432 1431 1431 1431 1431 1432 1434 1435 1434 1431 1428 1426 1424 1422 1421 1419 1418 1417 1416 1418 1418 1417 1417 1418 1420 1424 1426 1423 1423 1426 1428 1428 1430 1432 1434 1436 1437 1438 1439 1444 1448 1447 1454 1473 1482 1475 1480 1493 1494 1490 1491 1491 1489 1494 1502 1506 1503 1503 1504 1505 1507 1505 1504 1508 1512 1513 1518 1526 1531 1532 1534 1536 1537 1539 1541 1542 1542 1542 1543 1543 1543 1543 1543 1542
1435 1434 1433 1433 1432 1431 1431 1431 1431 1432 1433 1432 1432 1430 1427 1425 1423 1422 1421 1420 1421 1420 1420 1420 1418 1418 1422 1425 1426 1428 1427 1425 1426 1429 1429 1429 1432 1434 1436 1438 1438 1438 1441 1445 1451 1453 1454 1467 1476 1472 1478 1493 1494 1491 1494 1489 1483 1491 1505 1511 1509 1507 1507 1509 1510 1509 1508 1509 1511 1512 1518 1526 1531 1532 1534 1537 1539 1540 1541 1542 1542 1543 1544 1544 1544 1544 1544 1543